Regional Weather Roundup
Issued by NWS Sioux Falls, SD

Home | Current Version | Previous Version | Text Only | Print | Product List | Glossary On
Versions: 1 2 3 4 5 6 7 8 9 10 11 12 13 14 15 16 17 18 19 20 21 22 23 24 25 26 27 28 29 30 31 32 33 34 35 36 37 38 39 40 41 42 43 44 45 46 47 48 49 50
000
ASUS43 KFSD 250710
RWRFSD

WEATHER ROUNDUP FOR SE SOUTH DAKOTA/SW MINNESOTA/NW IOWA
NATIONAL WEATHER SERVICE SIOUX FALLS SD
200 AM CDT FRI JUL 25 2014

NOTE: "FAIR" INDICATES FEW OR NO CLOUDS BELOW 12,000 FEET WITH NO
SIGNIFICANT WEATHER AND OR OBSTRUCTIONS TO VISIBILITY.


SDZ038>040-050-052>070-250800-
SOUTHEAST SOUTH DAKOTA

CITY           SKY/WX    TMP DP  RH WIND       PRES   REMARKS
CHAMBERLAIN    MOCLDY    75  64  70 CALM      29.71F
HURON          CLOUDY    69  63  81 SE7       29.69F
MADISON        FAIR      64  64 100 SE12      29.72F
MITCHELL       CLOUDY    72  64  76 SE10      29.67F
SIOUX FALLS    MOCLDY    68  61  78 S12       29.71F
WINNER         FAIR      78  61  55 W17G23    29.73R
YANKTON        CLOUDY    75  63  64 SW9       29.70F
$$

MNZ071-072-080-081-089-090-097-098-250800-
SOUTHWEST MINNESOTA

CITY           SKY/WX    TMP DP  RH WIND       PRES   REMARKS
FAIRMONT       CLOUDY    64  59  82 S12       29.89R
JACKSON        TSTM      63  61  94 SE12G17   29.94R
LUVERNE        MOCLDY    64  61  88 E9        29.77F
MARSHALL       CLOUDY    66  61  82 SE14      29.74F
MONTEVIDEO     MOCLDY    64  61  88 S12       29.79S
PIPESTONE      PTCLDY    64  61  88 SE15      29.75F
REDWOOD FALLS  CLOUDY    66  61  84 SE18      29.80F
TRACY          CLOUDY    67  63  85 S16G22    29.77F
WINDOM         TSTM      64  63  94 SE15      29.81F
WORTHINGTON    CLOUDY    64  61  88 E15       29.85S
$$

IAZ001>003-012>014-020>022-031-032-NEZ013-014-SDZ071-250800-
NORTHWEST IOWA

CITY           SKY/WX    TMP DP  RH WIND       PRES   REMARKS
CHEROKEE       CLOUDY    68  62  80 SE16      29.77F
DENISON        CLOUDY    70  61  73 S16G26    29.79F
ESTHERVILLE    TSTM      63  62  97 E14       29.92R FOG
LE MARS        CLOUDY    72  63  73 S9G17     29.74F
ORANGE CITY    CLOUDY    70  59  68 SE6       29.75F
SHELDON        CLOUDY    66  63  88 SE7G14    29.77F
SIOUX CITY     CLOUDY    78  65  63 SW24G44   29.70F
SPENCER        CLOUDY    65  61  87 E12       29.85R
STORM LAKE     CLOUDY    66  64  94 SE14G23   29.82F
$$

ABBREVIATIONS USED IN REMARKS
   TC - TEMPERATURE IN CELSIUS
  WCI - WIND CHILL INDEX
   HX - HEAT INDEX
  VSB - VISIBILITY



USA.gov is the U.S. government's official web portal to all federal, state and local government web resources and services.